Weather History for Sheridan, WY

Change the Weather History Date:

Sunday, December 16, 2012

  Actual Average Record
Temperature  
Mean Temperature 25 °F 22 °F  
Max Temperature 36 °F 34 °F 63 °F (1939)
Min Temperature 13 °F 10 °F -24 °F (1964)
Degree Days  
Heating Degree Days 40 43  
Month to date heating degree days 557 665  
Since 1 July heating degree days 2241 2543  
Cooling Degree Days 0 0  
Month to date cooling degree days 0 0  
Year to date cooling degree days 664 419  
Moisture  
Dew Point 17 °F    
Average Humidity 76    
Maximum Humidity 96    
Minimum Humidity 56    
Precipitation  
Precipitation 0.00 in 0.02 in 0.25 in (1909)
Month to date precipitation 0.29 0.31  
Year to date precipitation 9.32 13.91  
Sea Level Pressure  
Sea Level Pressure 29.75 in    
Wind  
Wind Speed 2 mph (WSW)    
Max Wind Speed 8 mph    
Max Gust Speed 9 mph    
Visibility 10 miles    
Events      
T = Trace of Precipitation, MM = Missing Value Source: NWS Daily Summary

Daily Weather History Graph

Daily Weather History Graph

Search for Another Location

Airport:

Trip Planner

Search our weather history database for the weather conditions in past years. The results will help you decide how hot, cold, wet, or windy it might be!

Date:

Astronomy

Dec. 16, 2012 Rise Set
Actual Time 7:39 AM MST 4:28 PM MST
Civil Twilight 7:05 AM MST 5:01 PM MST
Nautical Twilight 6:28 AM MST 5:38 PM MST
Astronomical Twilight 5:53 AM MST 6:14 PM MST
Moon 10:07 AM MST (12/16) 8:54 PM MST (12/16)
Length of Visible Light 9h 55m
Length of Day
8h 48m
Waxing Crescent, 16% of the Moon is Illuminated
Dec 16
Waxing Crescent
Dec 19
First Quarter
Dec 28
Full
Jan 4
Last Quarter
Jan 11
New

Hourly Weather History & Observations

Time (MST) Temp. Windchill Dew Point Humidity Pressure Visibility Wind Dir Wind Speed Gust Speed Precip Events Conditions
12:53 AM 21.9 °F 14.5 °F 19.0 °F 89% 29.70 in 10.0 mi WNW 5.8 mph - N/A   Scattered Clouds
1:53 AM 21.0 °F 16.2 °F 19.0 °F 92% 29.69 in 10.0 mi WNW 3.5 mph - N/A   Mostly Cloudy
2:53 AM 21.9 °F - 19.9 °F 92% 29.69 in 10.0 mi Calm Calm - N/A   Overcast
3:53 AM 19.9 °F - 17.1 °F 89% 29.69 in 10.0 mi Calm Calm - N/A   Partly Cloudy
4:16 AM 17.6 °F - 15.8 °F 93% 29.57 in 10.0 mi Calm Calm - N/A   Partly Cloudy
4:53 AM 17.1 °F 10.0 °F 15.1 °F 92% 29.68 in 10.0 mi West 4.6 mph - N/A   Clear
5:53 AM 15.1 °F - 12.9 °F 91% 29.70 in 10.0 mi Calm Calm - N/A   Clear
6:53 AM 14.0 °F - 12.0 °F 92% 29.71 in 9.0 mi Calm Calm - N/A   Clear
7:53 AM 16.0 °F - 14.0 °F 92% 29.73 in 7.0 mi Calm Calm - N/A   Clear
8:53 AM 19.9 °F 14.9 °F 18.0 °F 92% 29.73 in 10.0 mi SSW 3.5 mph - N/A   Clear
9:53 AM 24.1 °F - 21.9 °F 91% 29.74 in 10.0 mi Calm Calm - N/A   Overcast
10:53 AM 27.0 °F - 21.0 °F 78% 29.73 in 10.0 mi Calm Calm - N/A   Overcast
11:53 AM 30.9 °F 27.5 °F 19.9 °F 64% 29.72 in 10.0 mi South 3.5 mph - N/A   Overcast
12:53 PM 33.1 °F - 21.0 °F 61% 29.73 in 10.0 mi Calm Calm - N/A   Overcast
1:53 PM 36.0 °F 32.1 °F 21.0 °F 55% 29.72 in 10.0 mi ENE 4.6 mph - N/A   Mostly Cloudy
2:53 PM 34.0 °F - 21.0 °F 59% 29.74 in 10.0 mi Calm Calm - N/A   Overcast
3:53 PM 35.1 °F 32.2 °F 21.9 °F 59% 29.75 in 10.0 mi SSW 3.5 mph - N/A   Overcast
4:53 PM 26.1 °F 21.9 °F 19.0 °F 75% 29.81 in 10.0 mi WNW 3.5 mph - N/A   Partly Cloudy
5:53 PM 25.0 °F 17.1 °F 17.1 °F 72% 29.84 in 10.0 mi NW 6.9 mph - N/A   Clear
6:53 PM 21.0 °F 14.6 °F 14.0 °F 74% 29.86 in 10.0 mi SSW 4.6 mph - N/A   Clear
7:53 PM 21.9 °F - 15.1 °F 75% 29.87 in 10.0 mi Calm Calm - N/A   Overcast
8:53 PM 21.9 °F 15.7 °F 16.0 °F 78% 29.84 in 10.0 mi SSW 4.6 mph - N/A   Mostly Cloudy
9:53 PM 21.0 °F - 14.0 °F 74% 29.83 in 10.0 mi Calm Calm - N/A   Scattered Clouds
10:53 PM 21.0 °F 16.2 °F 12.9 °F 71% 29.81 in 10.0 mi SW 3.5 mph - N/A   Clear
11:53 PM 19.0 °F 10.0 °F 12.0 °F 74% 29.77 in 10.0 mi SSW 6.9 mph - N/A   Clear